Weather History for Doha, Qatar

Change the Weather History Date:

Saturday, February 8, 2014

  Actual Average Record
Temperature  
Mean Temperature 65 °F -  
Max Temperature 70 °F 75 °F 93 °F (1998)
Min Temperature 60 °F 58 °F 41 °F (1997)
Growing Degree Days 15 (Base 50)    
Moisture  
Dew Point 53 °F    
Average Humidity 65    
Maximum Humidity 73    
Minimum Humidity 47    
Precipitation  
Precipitation 0.12 in 0.02 in - ()
Sea Level Pressure  
Sea Level Pressure 30.05 in    
Wind  
Wind Speed 7 mph ()    
Max Wind Speed 14 mph    
Max Gust Speed -    
Visibility 6.5 miles    
Events Rain    
Averages and records for this station are not official NWS values.
T = Trace of Precipitation, MM = Missing Value Source: Averaged Metar Reports

Daily Weather History Graph

Daily Weather History Graph

Search for Another Location

Airport:

Trip Planner

Search our weather history database for the weather conditions in past years. The results will help you decide how hot, cold, wet, or windy it might be!

Date:

Astronomy

Feb. 08, 2014 Rise Set
Actual Time 6:13 AM AST 5:22 PM AST
Civil Twilight 5:49 AM AST 5:46 PM AST
Nautical Twilight 5:22 AM AST 6:13 PM AST
Astronomical Twilight 4:55 AM AST 6:40 PM AST
Moon 12:07 PM AST (2/8) 12:57 AM AST (2/8)
Length of Visible Light 11h 57m
Length of Day
11h 09m
Waxing Gibbous, 65% of the Moon is Illuminated
Feb 8
Waxing Gibbous
Feb 15
Full
Feb 22
Last Quarter
Mar 1
New
Mar 8
First Quarter

Hourly Weather History & Observations

Time (AST) Temp. Dew Point Humidity Pressure Visibility Wind Dir Wind Speed Gust Speed Precip Events Conditions
12:00 AM 62 °F 51 °F 59% 30.05 in 10 mi NNW 6.9 mph - -   Mostly Cloudy
12:00 AM 62.6 °F 51.8 °F 68% 30.04 in - NNW 6.9 mph - N/A   Clear
12:30 AM 62.6 °F 51.8 °F 68% 30.04 in 6.2 mi NNW 8.1 mph - N/A   Mostly Cloudy
1:00 AM 62.6 °F 51.8 °F 68% 30.04 in 6.2 mi NNW 8.1 mph - N/A   Mostly Cloudy
1:30 AM 62.6 °F 51.8 °F 68% 30.04 in 6.2 mi NW 4.6 mph - N/A   Mostly Cloudy
2:00 AM 62.6 °F 51.8 °F 68% 30.04 in 6.2 mi NNW 5.8 mph - N/A   Mostly Cloudy
2:30 AM 62.6 °F 50.0 °F 63% 30.01 in 6.2 mi NNW 8.1 mph - N/A   Mostly Cloudy
3:00 AM 63 °F 51 °F 55% 30.03 in 7 mi NNW 8.1 mph - -   Scattered Clouds
3:00 AM 62.6 °F 51.8 °F 68% 30.01 in 6.2 mi NNW 8.1 mph - N/A   Mostly Cloudy
3:30 AM 62.6 °F 51.8 °F 68% 30.01 in 6.2 mi NNW 5.8 mph - N/A   Mostly Cloudy
4:00 AM 62.6 °F 51.8 °F 68% 30.01 in 6.2 mi NNW 4.6 mph - N/A   Scattered Clouds
4:30 AM 60.8 °F 51.8 °F 72% 30.01 in 6.2 mi NW 3.5 mph - N/A   Scattered Clouds
5:00 AM 60.8 °F 51.8 °F 72% 30.04 in 6.2 mi Variable 2.3 mph - N/A   Partly Cloudy
5:30 AM 60.8 °F 51.8 °F 72% 30.04 in 6.2 mi Variable 1.2 mph - N/A   Partly Cloudy
6:00 AM 61 °F 52 °F 64% 30.06 in 5 mi 2.3 mph - -   Haze
6:00 AM 60.8 °F 51.8 °F 72% 30.04 in 5.0 mi Variable 2.3 mph - N/A   Partly Cloudy
6:30 AM 60.8 °F 51.8 °F 72% 30.06 in 6.2 mi WNW 4.6 mph - N/A   Partly Cloudy
7:00 AM 60.8 °F 51.8 °F 72% 30.06 in 6.2 mi NW 4.6 mph - N/A   Partly Cloudy
7:30 AM 60.8 °F 51.8 °F 72% 30.06 in 6.2 mi WNW 5.8 mph - N/A   Partly Cloudy
8:00 AM 64.4 °F 51.8 °F 64% 30.09 in 6.2 mi NNW 9.2 mph - N/A   Partly Cloudy
8:30 AM 64.4 °F 51.8 °F 64% 30.09 in 6.2 mi NNW 11.5 mph - N/A   Partly Cloudy
9:00 AM 65 °F 52 °F 53% 30.11 in 9 mi NNW 12.7 mph - -   Scattered Clouds
9:00 AM 64.4 °F 51.8 °F 64% 30.09 in 6.2 mi NNW 12.7 mph - N/A   Partly Cloudy
9:30 AM 66.2 °F 51.8 °F 60% 30.09 in 6.2 mi NNW 11.5 mph - N/A   Partly Cloudy
10:00 AM 66.2 °F 53.6 °F 64% 30.09 in 6.2 mi NNW 11.5 mph - N/A   Partly Cloudy
10:30 AM 68.0 °F 53.6 °F 60% 30.09 in 6.2 mi North 11.5 mph - N/A   Partly Cloudy
11:00 AM 68.0 °F 51.8 °F 56% 30.09 in 6.2 mi North 11.5 mph - N/A   Partly Cloudy
11:30 AM 68.0 °F 53.6 °F 60% 30.06 in 6.2 mi North 10.4 mph - N/A   Partly Cloudy
12:00 PM 68 °F 53 °F 49% 30.07 in 10 mi North 10.4 mph - -   Scattered Clouds
12:00 PM 68.0 °F 53.6 °F 60% 30.06 in 6.2 mi North 10.4 mph - N/A   Partly Cloudy
12:30 PM 68.0 °F 51.8 °F 56% 30.04 in 6.2 mi NNE 9.2 mph - N/A   Partly Cloudy
1:00 PM 68.0 °F 51.8 °F 56% 30.04 in 6.2 mi North 6.9 mph - N/A   Partly Cloudy
1:30 PM 68.0 °F 51.8 °F 56% 30.01 in 6.2 mi NNE 9.2 mph - N/A   Partly Cloudy
2:00 PM 69.8 °F 51.8 °F 53% 30.01 in - ENE 9.2 mph - N/A   Clear
2:30 PM 69.8 °F 53.6 °F 56% 30.01 in - ENE 9.2 mph - N/A   Clear
3:00 PM 69 °F 53 °F 47% 30.02 in 10 mi ENE 9.2 mph - -   Scattered Clouds
3:00 PM 68.0 °F 53.6 °F 60% 30.01 in - ENE 9.2 mph - N/A   Clear
3:30 PM 68.0 °F 53.6 °F 60% 30.01 in - NNE 9.2 mph - N/A   Clear
4:00 PM 66.2 °F 53.6 °F 64% 30.01 in - NNE 6.9 mph - N/A   Clear
4:30 PM 66.2 °F 53.6 °F 64% 30.01 in - NNE 10.4 mph - N/A   Clear
5:00 PM 66.2 °F 55.4 °F 68% 30.04 in - NNE 10.4 mph - N/A   Clear
5:30 PM 66.2 °F 55.4 °F 68% 30.04 in - North 11.5 mph - N/A   Clear
6:00 PM 65 °F 56 °F 64% 30.05 in 7 mi North 10.4 mph - -   Scattered Clouds
6:00 PM 66.2 °F 55.4 °F 68% 30.04 in - North 10.4 mph - N/A   Clear
6:30 PM 64.4 °F 55.4 °F 73% 30.04 in - NNE 10.4 mph - N/A   Clear
7:00 PM 64.4 °F 55.4 °F 73% 30.04 in 6.2 mi North 10.4 mph - N/A   Scattered Clouds
7:30 PM 64.4 °F 55.4 °F 73% 30.04 in 6.2 mi North 12.7 mph - N/A   Scattered Clouds
8:00 PM 64.4 °F 53.6 °F 68% 30.04 in 6.2 mi North 10.4 mph - N/A   Scattered Clouds
8:30 PM 64.4 °F 55.4 °F 73% 30.04 in 6.2 mi North 9.2 mph - N/A   Scattered Clouds
9:00 PM 65 °F 54 °F 60% 30.06 in 7 mi North 11.5 mph - -   Scattered Clouds
9:00 PM 64.4 °F 55.4 °F 73% 30.06 in 6.2 mi North 11.5 mph - N/A   Mostly Cloudy
9:30 PM 64.4 °F 53.6 °F 68% 30.06 in 6.2 mi North 11.5 mph - N/A   Mostly Cloudy
10:00 PM 64.4 °F 53.6 °F 68% 30.06 in 6.2 mi NNW 10.4 mph - N/A   Mostly Cloudy
10:30 PM 64.4 °F 53.6 °F 68% 30.06 in 6.2 mi NNW 12.7 mph - N/A Rain Light Rain
11:00 PM 64.4 °F 53.6 °F 68% 30.06 in 6.2 mi NNW 13.8 mph - N/A   Mostly Cloudy